Location: Alpine
(43.1636°N, 111.0180°W)
Time: 04:52:58
(UTC+00:00)

Tiros 1 despin weight - Pass Details

Date: 31 May 2022
Orbit: 591 x 639 km, 48.2° (Epoch: 30 June)

Event Time Altitude Azimuth Distance (km) Brightness Sun altitude
Rises 02:39:16 0° 282° (WNW) 2,873 ? 1.8°
Reaches altitude 10° 02:41:41 10° 290° (WNW) 1,960 ? 1.4°
Maximum altitude 02:45:58 43° 2° (N) 850 ? 0.7°
Drops below altitude 10° 02:50:12 10° 75° (ENE) 1,933 ? 0.0°
Sets 02:52:34 0° 82° (E) 2,829 ? -0.3°
